STV1 EDGS-LIEO

Flight info

Callsign STV1
Flight time 1h 40m
Altitude 24000
Route TOBAK2K TOBAK Z10 TESGA/N0450F290 L603 BOMBI/N0438F270 N850 UBENO/N0414F230 N850 NATOR/N0464F390 N850 ODINA/N0391F190 M727 SRN M858 TORTU/N0458F390 A9 CORSI
Aircraft CL60/M-SADE3FGHIJ3J4J7P2RWXY/HB1D1

Departure

Time 2026-05-06 20:36
Airport Siegerland Airport (EDGS)

Arrival

Time 2026-05-06 22:16
Airport Olbia Costa Smeralda Airport (LIEO)
Time Latitude Longitude Altitude Speed Heading
2026-05-06 19:58 50.70775 8.07711 1975 ft 0 kts 36°
2026-05-06 20:31 50.70776 8.07711 1975 ft 1 kts 36°
2026-05-06 20:31 50.70791 8.07743 1974 ft 6 kts 70°
2026-05-06 20:32 50.70786 8.07834 1972 ft 11 kts 123°
2026-05-06 20:32 50.70719 8.07966 1965 ft 18 kts 128°
2026-05-06 20:32 50.70623 8.08161 1955 ft 26 kts 128°
2026-05-06 20:32 50.70540 8.08330 1947 ft 19 kts 128°
2026-05-06 20:33 50.70447 8.08516 1938 ft 20 kts 128°
2026-05-06 20:33 50.70357 8.08697 1933 ft 19 kts 128°
2026-05-06 20:33 50.70307 8.08826 1929 ft 9 kts 82°
2026-05-06 20:33 50.70354 8.08912 1929 ft 9 kts 40°
2026-05-06 20:34 50.70405 8.08985 1927 ft 6 kts 34°
2026-05-06 20:34 50.70427 8.08976 1927 ft 0 kts 308°
2026-05-06 20:35 50.70436 8.08959 1928 ft 13 kts 310°
2026-05-06 20:35 50.70653 8.08520 1945 ft 89 kts 308°
2026-05-06 20:35 50.71165 8.07476 2006 ft 146 kts 304°
2026-05-06 20:36 50.71728 8.05990 2475 ft 165 kts 308°
2026-05-06 20:36 50.72432 8.04539 3198 ft 172 kts 311°
2026-05-06 20:36 50.73152 8.03004 3934 ft 181 kts 311°
2026-05-06 20:36 50.74055 8.01546 4542 ft 195 kts 315°
2026-05-06 20:37 50.74985 7.99799 5169 ft 218 kts 310°
2026-05-06 20:37 50.76051 7.98166 6170 ft 219 kts 333°
2026-05-06 20:37 50.77526 7.97785 7153 ft 223 kts
2026-05-06 20:37 50.78991 7.98497 8108 ft 230 kts 26°
2026-05-06 20:38 50.80242 8.00076 9080 ft 237 kts 49°
2026-05-06 20:38 50.81016 8.02380 9968 ft 246 kts 74°
2026-05-06 20:38 50.81058 8.05096 10807 ft 255 kts 97°
2026-05-06 20:38 50.80783 8.07898 11644 ft 261 kts 98°
2026-05-06 20:39 50.80500 8.10832 12048 ft 266 kts 98°
2026-05-06 20:39 50.80222 8.13731 12214 ft 275 kts 98°
2026-05-06 20:39 50.80058 8.16785 12982 ft 282 kts 89°
2026-05-06 20:39 50.80132 8.20032 13057 ft 317 kts 87°
2026-05-06 20:40 50.80246 8.23772 13080 ft 348 kts 87°
2026-05-06 20:40 50.80362 8.27739 13369 ft 366 kts 87°
2026-05-06 20:40 50.80478 8.31799 13886 ft 374 kts 87°
2026-05-06 20:40 50.80593 8.35899 14518 ft 379 kts 87°
2026-05-06 20:41 50.80518 8.40060 15178 ft 382 kts 99°
2026-05-06 20:41 50.79718 8.44098 15831 ft 384 kts 117°
2026-05-06 20:41 50.78197 8.47539 16437 ft 385 kts 134°
2026-05-06 20:41 50.76281 8.50436 17004 ft 389 kts 138°
2026-05-06 20:42 50.74289 8.53371 17606 ft 392 kts 138°
2026-05-06 20:42 50.72308 8.56296 18166 ft 394 kts 138°
2026-05-06 20:42 50.70303 8.59253 18734 ft 397 kts 138°
2026-05-06 20:42 50.68293 8.62215 19261 ft 400 kts 138°
2026-05-06 20:43 50.66266 8.65199 19766 ft 403 kts 139°
2026-05-06 20:43 50.64221 8.68205 20269 ft 405 kts 139°
2026-05-06 20:43 50.62003 8.70940 20800 ft 403 kts 151°
2026-05-06 20:43 50.59460 8.72657 21263 ft 402 kts 167°
2026-05-06 20:44 50.56711 8.73223 21743 ft 400 kts 182°
2026-05-06 20:44 50.53991 8.72609 22204 ft 399 kts 197°
2026-05-06 20:44 50.51439 8.70821 22634 ft 400 kts 213°
2026-05-06 20:44 50.49265 8.68192 23004 ft 403 kts 220°
2026-05-06 20:45 50.46976 8.65636 23434 ft 404 kts 209°
2026-05-06 20:45 50.44358 8.64095 23886 ft 411 kts 193°
2026-05-06 20:45 50.41512 8.63745 24560 ft 416 kts 178°
2026-05-06 20:45 50.38660 8.64515 25266 ft 418 kts 169°
2026-05-06 20:46 50.35777 8.65033 25952 ft 418 kts 179°
2026-05-06 20:46 50.32863 8.65145 26563 ft 420 kts 179°
2026-05-06 20:46 50.29936 8.65257 27140 ft 423 kts 179°
2026-05-06 20:46 50.27014 8.65382 27586 ft 427 kts 179°
2026-05-06 20:47 50.23983 8.65525 28130 ft 428 kts 179°
2026-05-06 20:47 50.21016 8.65698 28626 ft 431 kts 178°
2026-05-06 20:47 50.17981 8.65891 29009 ft 435 kts 178°
2026-05-06 20:47 50.14954 8.66088 29334 ft 439 kts 178°
2026-05-06 20:48 50.11881 8.66292 29717 ft 442 kts 178°
2026-05-06 20:48 50.08817 8.66500 30083 ft 444 kts 177°
2026-05-06 20:48 50.05730 8.66712 30490 ft 444 kts 177°
2026-05-06 20:48 50.02661 8.66926 30774 ft 447 kts 177°
2026-05-06 20:49 49.99537 8.67146 31015 ft 449 kts 177°
2026-05-06 20:49 49.96448 8.67365 31179 ft 450 kts 177°
2026-05-06 20:49 49.93310 8.67589 31470 ft 451 kts 177°
2026-05-06 20:49 49.90187 8.67814 31647 ft 453 kts 177°
2026-05-06 20:50 49.87025 8.68042 31879 ft 454 kts 177°
2026-05-06 20:50 49.83876 8.68270 32079 ft 454 kts 177°
2026-05-06 20:50 49.80717 8.68500 32334 ft 453 kts 178°
2026-05-06 20:50 49.77600 8.68727 32574 ft 453 kts 178°
2026-05-06 20:51 49.74437 8.68944 32785 ft 452 kts 179°
2026-05-06 20:51 49.71327 8.68752 33061 ft 449 kts 185°
2026-05-06 20:51 49.68229 8.68319 33264 ft 448 kts 185°
2026-05-06 20:51 49.65153 8.67895 33452 ft 447 kts 185°
2026-05-06 20:52 49.62034 8.67468 33632 ft 447 kts 186°
2026-05-06 20:52 49.58968 8.67050 33789 ft 447 kts 186°
2026-05-06 20:52 49.55861 8.66629 33963 ft 447 kts 186°
2026-05-06 20:52 49.52797 8.66213 34107 ft 448 kts 186°
2026-05-06 20:53 49.49684 8.65793 34273 ft 447 kts 186°
2026-05-06 20:53 49.46581 8.65376 34425 ft 447 kts 186°
2026-05-06 20:53 49.43512 8.64964 34608 ft 446 kts 186°
2026-05-06 20:53 49.40436 8.64552 34827 ft 446 kts 186°
2026-05-06 20:54 49.37361 8.64141 34959 ft 446 kts 186°
2026-05-06 20:54 49.34278 8.63730 35126 ft 446 kts 186°
2026-05-06 20:54 49.31220 8.63296 35321 ft 445 kts 187°
2026-05-06 20:54 49.28124 8.62813 35457 ft 446 kts 187°
2026-05-06 20:55 49.25073 8.62336 35630 ft 445 kts 187°
2026-05-06 20:55 49.21989 8.61857 35802 ft 445 kts 187°
2026-05-06 20:55 49.18898 8.61376 35940 ft 445 kts 187°
2026-05-06 20:55 49.15853 8.60904 36058 ft 445 kts 187°
2026-05-06 20:56 49.12779 8.60435 36205 ft 446 kts 187°
2026-05-06 20:56 49.09688 8.59970 36331 ft 447 kts 187°
2026-05-06 20:56 49.06587 8.59504 36475 ft 447 kts 187°
2026-05-06 20:56 49.03523 8.59044 36583 ft 447 kts 187°
2026-05-06 20:57 49.00428 8.58576 36694 ft 448 kts 187°
2026-05-06 20:57 48.94337 8.56841 36911 ft 448 kts 193°
2026-05-06 20:57 48.91283 8.55843 37066 ft 447 kts 193°
2026-05-06 20:58 48.88251 8.54855 37157 ft 448 kts 193°
2026-05-06 20:58 48.82138 8.52869 37364 ft 449 kts 193°
2026-05-06 20:58 48.79121 8.51891 37519 ft 448 kts 193°
2026-05-06 20:59 48.76065 8.50902 37648 ft 448 kts 193°
2026-05-06 20:59 48.69986 8.48941 37799 ft 450 kts 193°
2026-05-06 20:59 48.66921 8.47954 37910 ft 450 kts 193°
2026-05-06 21:00 48.63893 8.46980 38035 ft 450 kts 193°
2026-05-06 21:00 48.57740 8.45014 38178 ft 451 kts 193°
2026-05-06 21:01 48.51632 8.43069 38305 ft 453 kts 193°
2026-05-06 21:01 48.45477 8.41114 38437 ft 454 kts 193°
2026-05-06 21:02 48.39251 8.39137 38568 ft 456 kts 193°
2026-05-06 21:02 48.36180 8.38163 38697 ft 455 kts 193°
2026-05-06 21:02 48.33087 8.37185 38840 ft 454 kts 193°
2026-05-06 21:03 48.26897 8.35229 38918 ft 456 kts 193°
2026-05-06 21:03 48.20697 8.33308 38932 ft 456 kts 191°
2026-05-06 21:04 48.14394 8.32874 38918 ft 459 kts 176°
2026-05-06 21:04 48.08046 8.34290 38915 ft 459 kts 172°
2026-05-06 21:05 48.01772 8.35807 38911 ft 459 kts 172°
2026-05-06 21:05 47.95459 8.37331 38929 ft 459 kts 172°
2026-05-06 21:06 47.89179 8.38844 38926 ft 460 kts 172°
2026-05-06 21:06 47.82856 8.40361 38939 ft 460 kts 172°
2026-05-06 21:07 47.76549 8.41868 38930 ft 459 kts 173°
2026-05-06 21:07 47.70274 8.43362 38944 ft 461 kts 173°
2026-05-06 21:08 47.63902 8.44454 38927 ft 461 kts 176°
2026-05-06 21:08 47.57587 8.45379 38944 ft 459 kts 176°
2026-05-06 21:09 47.51233 8.46309 38940 ft 459 kts 176°
2026-05-06 21:09 47.44886 8.47238 38923 ft 460 kts 176°
2026-05-06 21:10 47.38564 8.48162 38967 ft 459 kts 176°
2026-05-06 21:10 47.32215 8.49088 38950 ft 459 kts 176°
2026-05-06 21:11 47.25870 8.50013 38963 ft 460 kts 176°
2026-05-06 21:11 47.19529 8.50936 38936 ft 461 kts 176°
2026-05-06 21:12 47.13153 8.51864 38975 ft 459 kts 176°
2026-05-06 21:12 47.06782 8.52788 38946 ft 461 kts 176°
2026-05-06 21:13 47.00448 8.53705 38978 ft 461 kts 176°
2026-05-06 21:13 46.94111 8.54619 38942 ft 459 kts 176°
2026-05-06 21:14 46.87791 8.55529 39001 ft 456 kts 176°
2026-05-06 21:14 46.81410 8.56445 38951 ft 459 kts 176°
2026-05-06 21:15 46.75096 8.57350 38910 ft 458 kts 176°
2026-05-06 21:15 46.68790 8.58251 38956 ft 457 kts 176°
2026-05-06 21:16 46.62443 8.59156 38898 ft 459 kts 176°
2026-05-06 21:16 46.56111 8.60057 38941 ft 457 kts 176°
2026-05-06 21:17 46.49811 8.60950 38959 ft 459 kts 177°
2026-05-06 21:17 46.43475 8.61847 38913 ft 455 kts 177°
2026-05-06 21:18 46.37174 8.62737 38929 ft 456 kts 177°
2026-05-06 21:18 46.30906 8.63620 38910 ft 454 kts 177°
2026-05-06 21:19 46.24626 8.64503 38967 ft 453 kts 177°
2026-05-06 21:19 46.18342 8.65384 38965 ft 454 kts 178°
2026-05-06 21:20 46.12118 8.66631 38965 ft 455 kts 171°
2026-05-06 21:20 46.06172 8.69846 38939 ft 464 kts 157°
2026-05-06 21:21 46.00483 8.74293 38945 ft 466 kts 156°
2026-05-06 21:21 45.94804 8.78730 38951 ft 467 kts 156°
2026-05-06 21:22 45.89117 8.83165 38899 ft 464 kts 156°
2026-05-06 21:22 45.83498 8.87536 38936 ft 462 kts 156°
2026-05-06 21:23 45.77821 8.91941 38866 ft 465 kts 156°
2026-05-06 21:23 45.72200 8.96294 38929 ft 461 kts 156°
2026-05-06 21:24 45.66382 9.00015 38932 ft 457 kts 167°
2026-05-06 21:24 45.60203 9.01606 38926 ft 447 kts 181°
2026-05-06 21:25 45.54051 9.01359 38926 ft 444 kts 187°
2026-05-06 21:25 45.47892 9.00890 38923 ft 443 kts 187°
2026-05-06 21:26 45.41772 9.00426 38928 ft 442 kts 187°
2026-05-06 21:26 45.35625 8.99961 38923 ft 442 kts 187°
2026-05-06 21:27 45.29476 8.99497 38901 ft 442 kts 187°
2026-05-06 21:27 45.23328 8.99033 38906 ft 444 kts 187°
2026-05-06 21:28 45.17199 8.98573 38886 ft 443 kts 187°
2026-05-06 21:28 45.11073 8.98114 38882 ft 443 kts 187°
2026-05-06 21:29 45.04930 8.97655 38865 ft 443 kts 187°
2026-05-06 21:29 44.98800 8.97199 38888 ft 442 kts 187°
2026-05-06 21:30 44.92632 8.97817 38894 ft 450 kts 176°
2026-05-06 21:30 44.86482 8.99140 38884 ft 448 kts 176°
2026-05-06 21:31 44.80284 9.00429 38897 ft 449 kts 176°
2026-05-06 21:31 44.74136 9.01701 38925 ft 448 kts 176°
2026-05-06 21:32 44.67968 9.02974 38929 ft 447 kts 176°
2026-05-06 21:32 44.58769 9.04872 38943 ft 447 kts 176°
2026-05-06 21:33 44.52610 9.06141 38940 ft 449 kts 176°
2026-05-06 21:33 44.46437 9.07411 38944 ft 446 kts 176°
2026-05-06 21:34 44.40302 9.07970 38968 ft 440 kts 188°
2026-05-06 21:34 44.34229 9.07245 38929 ft 440 kts 189°
2026-05-06 21:35 44.28157 9.06517 38909 ft 439 kts 188°
2026-05-06 21:35 44.22109 9.05794 38922 ft 439 kts 188°
2026-05-06 21:36 44.15990 9.05064 38954 ft 440 kts 189°
2026-05-06 21:36 44.09926 9.04343 38926 ft 438 kts 189°
2026-05-06 21:37 44.03830 9.03619 38951 ft 440 kts 189°
2026-05-06 21:37 43.97748 9.02898 38918 ft 438 kts 189°
2026-05-06 21:38 43.91706 9.02176 38958 ft 438 kts 189°
2026-05-06 21:38 43.85651 9.01437 38906 ft 438 kts 189°
2026-05-06 21:39 43.79569 9.00701 38932 ft 437 kts 189°
2026-05-06 21:39 43.73507 8.99991 38914 ft 437 kts 189°
2026-05-06 21:40 43.67457 8.99284 38944 ft 438 kts 189°
2026-05-06 21:40 43.61431 8.98581 38937 ft 439 kts 189°
2026-05-06 21:41 43.55354 8.97874 38910 ft 437 kts 189°
2026-05-06 21:41 43.49336 8.97141 38942 ft 434 kts 189°
2026-05-06 21:42 43.43309 8.96396 38968 ft 433 kts 189°
2026-05-06 21:42 43.37275 8.95662 38867 ft 439 kts 189°
2026-05-06 21:43 43.31300 8.94995 38927 ft 431 kts 189°
2026-05-06 21:43 43.25284 8.94321 38934 ft 433 kts 189°
2026-05-06 21:44 43.19288 8.93632 38888 ft 433 kts 189°
2026-05-06 21:44 43.13289 8.92922 38909 ft 435 kts 190°
2026-05-06 21:45 43.07273 8.92215 38915 ft 431 kts 189°
2026-05-06 21:45 43.01266 8.91507 38976 ft 435 kts 190°
2026-05-06 21:46 42.95254 8.90802 38932 ft 433 kts 190°
2026-05-06 21:46 42.89233 8.90108 38947 ft 432 kts 190°
2026-05-06 21:47 42.83260 8.89426 38942 ft 432 kts 190°
2026-05-06 21:47 42.77283 8.88772 38915 ft 429 kts 189°
2026-05-06 21:48 42.71339 8.88110 39000 ft 433 kts 190°
2026-05-06 21:48 42.65352 8.87423 38934 ft 431 kts 190°
2026-05-06 21:49 42.59366 8.86736 38995 ft 434 kts 190°
2026-05-06 21:49 42.53354 8.86048 38962 ft 436 kts 190°
2026-05-06 21:50 42.47345 8.85364 39011 ft 433 kts 190°
2026-05-06 21:50 42.44344 8.85021 38896 ft 434 kts 190°
2026-05-06 21:50 42.41346 8.84681 39024 ft 430 kts 190°
2026-05-06 21:51 42.36333 8.84110 39003 ft 434 kts 190°
2026-05-06 21:51 42.30823 8.83485 39012 ft 432 kts 190°
2026-05-06 21:52 42.24738 8.82793 38443 ft 441 kts 190°
2026-05-06 21:52 42.21708 8.82452 37988 ft 438 kts 190°
2026-05-06 21:52 42.18652 8.82110 37455 ft 435 kts 190°
2026-05-06 21:53 42.15664 8.81776 36893 ft 432 kts 190°
2026-05-06 21:53 42.12631 8.81436 36327 ft 432 kts 190°
2026-05-06 21:53 42.09627 8.81099 35771 ft 433 kts 191°
2026-05-06 21:53 42.06617 8.80761 35187 ft 433 kts 190°
2026-05-06 21:54 42.03620 8.80425 34614 ft 434 kts 191°
2026-05-06 21:54 42.00660 8.80094 33991 ft 433 kts 190°
2026-05-06 21:54 41.97648 8.79758 33454 ft 435 kts 190°
2026-05-06 21:54 41.94567 8.79414 32866 ft 436 kts 190°
2026-05-06 21:55 41.91502 8.79072 32271 ft 438 kts 190°
2026-05-06 21:55 41.88466 8.78733 31701 ft 439 kts 190°
2026-05-06 21:55 41.85428 8.78395 31103 ft 439 kts 190°
2026-05-06 21:55 41.82386 8.78059 30541 ft 434 kts 189°
2026-05-06 21:56 41.79404 8.77729 29957 ft 431 kts 189°
2026-05-06 21:56 41.76411 8.77512 29396 ft 431 kts 184°
2026-05-06 21:56 41.73434 8.77737 28823 ft 429 kts 181°
2026-05-06 21:56 41.70488 8.78004 28277 ft 426 kts 181°
2026-05-06 21:57 41.67551 8.78264 27703 ft 422 kts 181°
2026-05-06 21:57 41.64626 8.78766 27182 ft 423 kts 175°
2026-05-06 21:57 41.61749 8.79549 26660 ft 418 kts 174°
2026-05-06 21:57 41.58929 8.80316 25888 ft 414 kts 174°
2026-05-06 21:58 41.56102 8.81077 24988 ft 413 kts 174°
2026-05-06 21:58 41.53294 8.81831 24143 ft 411 kts 174°
2026-05-06 21:58 41.50509 8.82578 23389 ft 407 kts 174°
2026-05-06 21:58 41.47743 8.83319 22660 ft 402 kts 174°
2026-05-06 21:59 41.45048 8.84038 21914 ft 398 kts 173°
2026-05-06 21:59 41.42349 8.84758 21159 ft 394 kts 173°
2026-05-06 21:59 41.39660 8.85473 20392 ft 391 kts 173°
2026-05-06 21:59 41.37026 8.86172 19661 ft 387 kts 173°
2026-05-06 22:00 41.34399 8.86868 18871 ft 385 kts 172°
2026-05-06 22:00 41.31796 8.87557 18105 ft 381 kts 172°
2026-05-06 22:00 41.29233 8.88234 17408 ft 376 kts 172°
2026-05-06 22:00 41.26667 8.88912 16661 ft 373 kts 172°
2026-05-06 22:01 41.24161 8.89573 15919 ft 369 kts 172°
2026-05-06 22:01 41.21667 8.90230 15221 ft 364 kts 172°
2026-05-06 22:01 41.19176 8.90885 14504 ft 361 kts 172°
2026-05-06 22:01 41.16756 8.91521 13817 ft 357 kts 171°
2026-05-06 22:02 41.14332 8.92158 13269 ft 348 kts 171°
2026-05-06 22:02 41.11975 8.92777 12775 ft 339 kts 171°
2026-05-06 22:02 41.09649 8.93387 12368 ft 329 kts 171°
2026-05-06 22:02 41.07407 8.93975 11943 ft 321 kts 171°
2026-05-06 22:03 41.05190 8.94555 11518 ft 313 kts 171°
2026-05-06 22:03 41.02989 8.95131 11146 ft 305 kts 171°
2026-05-06 22:03 41.00935 8.95668 10802 ft 298 kts 171°
2026-05-06 22:03 40.98915 8.96196 10473 ft 292 kts 171°
2026-05-06 22:04 40.96939 8.96711 10110 ft 288 kts 171°
2026-05-06 22:04 40.94978 8.97221 9678 ft 286 kts 171°
2026-05-06 22:04 40.93016 8.97732 9221 ft 286 kts 171°
2026-05-06 22:04 40.91067 8.98239 8784 ft 284 kts 171°
2026-05-06 22:05 40.89147 8.98738 8362 ft 283 kts 171°
2026-05-06 22:05 40.87214 8.99240 8067 ft 278 kts 171°
2026-05-06 22:05 40.85300 8.99737 7814 ft 279 kts 171°
2026-05-06 22:05 40.83386 9.00233 7552 ft 280 kts 171°
2026-05-06 22:06 40.81477 9.00729 7307 ft 279 kts 171°
2026-05-06 22:06 40.79582 9.01220 7056 ft 278 kts 170°
2026-05-06 22:06 40.77679 9.01713 6812 ft 276 kts 170°
2026-05-06 22:06 40.75805 9.02198 6567 ft 268 kts 170°
2026-05-06 22:07 40.73997 9.02666 6319 ft 259 kts 170°
2026-05-06 22:07 40.72252 9.03147 6081 ft 252 kts 165°
2026-05-06 22:07 40.70752 9.04181 5983 ft 240 kts 140°
2026-05-06 22:07 40.69694 9.05932 5997 ft 243 kts 117°
2026-05-06 22:08 40.69223 9.08152 5987 ft 245 kts 93°
2026-05-06 22:08 40.69386 9.10364 6042 ft 246 kts 79°
2026-05-06 22:08 40.69713 9.12584 6009 ft 246 kts 73°
2026-05-06 22:08 40.70416 9.14615 6002 ft 245 kts 57°
2026-05-06 22:09 40.71339 9.16491 6000 ft 243 kts 56°
2026-05-06 22:09 40.72264 9.18294 6012 ft 226 kts 54°
2026-05-06 22:09 40.73109 9.19899 6015 ft 204 kts 54°
2026-05-06 22:09 40.73921 9.21447 6005 ft 199 kts 54°
2026-05-06 22:10 40.74735 9.22984 5794 ft 200 kts 54°
2026-05-06 22:10 40.75522 9.24475 5483 ft 195 kts 54°
2026-05-06 22:10 40.76286 9.25924 5216 ft 189 kts 54°
2026-05-06 22:10 40.77053 9.27373 4884 ft 187 kts 54°
2026-05-06 22:11 40.77832 9.28834 4546 ft 183 kts 54°
2026-05-06 22:11 40.78596 9.30292 4243 ft 179 kts 56°
2026-05-06 22:11 40.79327 9.31693 3960 ft 174 kts 54°
2026-05-06 22:11 40.80077 9.33095 3684 ft 177 kts 55°
2026-05-06 22:12 40.80825 9.34506 3431 ft 176 kts 54°
2026-05-06 22:12 40.81559 9.35897 3135 ft 169 kts 55°
2026-05-06 22:12 40.82222 9.37188 2902 ft 157 kts 55°
2026-05-06 22:12 40.82816 9.38354 2698 ft 140 kts 56°
2026-05-06 22:13 40.83408 9.39564 2426 ft 149 kts 57°
2026-05-06 22:13 40.83997 9.40781 2216 ft 146 kts 57°
2026-05-06 22:13 40.84626 9.41963 1968 ft 146 kts 52°
2026-05-06 22:13 40.85288 9.43102 1693 ft 145 kts 53°
2026-05-06 22:14 40.85910 9.44239 1443 ft 141 kts 55°
2026-05-06 22:14 40.86509 9.45374 1198 ft 139 kts 55°
2026-05-06 22:14 40.87047 9.46366 1000 ft 135 kts 54°
2026-05-06 22:14 40.87640 9.47462 770 ft 137 kts 56°
2026-05-06 22:15 40.88227 9.48573 567 ft 138 kts 58°
2026-05-06 22:15 40.88784 9.49689 335 ft 135 kts 57°
2026-05-06 22:15 40.89335 9.50745 104 ft 131 kts 57°
2026-05-06 22:15 40.89826 9.51684 45 ft 109 kts 57°
2026-05-06 22:16 40.90216 9.52426 45 ft 82 kts 59°
2026-05-06 22:16 40.90346 9.52676 45 ft 7 kts 49°
2026-05-06 22:16 40.90412 9.52686 45 ft 5 kts 348°
2026-05-06 22:16 40.90448 9.52642 45 ft 9 kts 283°
2026-05-06 22:17 40.90458 9.52536 45 ft 13 kts 273°
2026-05-06 22:17 40.90412 9.52411 45 ft 17 kts 235°
2026-05-06 22:17 40.90336 9.52268 45 ft 20 kts 235°
2026-05-06 22:17 40.90247 9.52099 45 ft 23 kts 235°
2026-05-06 22:18 40.90150 9.51910 45 ft 26 kts 235°
2026-05-06 22:18 40.90041 9.51703 45 ft 28 kts 234°
2026-05-06 22:18 40.89926 9.51488 45 ft 10 kts 235°
2026-05-06 22:18 40.89880 9.51395 45 ft 14 kts 236°
2026-05-06 22:19 40.89817 9.51276 45 ft 17 kts 235°
2026-05-06 22:19 40.89741 9.51131 45 ft 20 kts 234°
2026-05-06 22:19 40.89651 9.50959 45 ft 24 kts 236°
2026-05-06 22:19 40.89589 9.50839 45 ft 12 kts 235°
2026-05-06 22:20 40.89587 9.50733 45 ft 12 kts 325°
2026-05-06 22:20 40.89671 9.50657 45 ft 16 kts 326°
2026-05-06 22:20 40.89710 9.50578 45 ft 10 kts 235°
2026-05-06 22:20 40.89660 9.50485 45 ft 14 kts 234°
2026-05-06 22:21 40.89617 9.50403 45 ft 10 kts 237°
2026-05-06 22:21 40.89605 9.50338 45 ft 6 kts 321°
2026-05-06 22:21 40.89630 9.50326 45 ft 2 kts 47°
2026-05-06 22:21 40.89626 9.50355 45 ft 1 kts 88°
2026-05-06 22:22 40.89626 9.50356 45 ft 0 kts 88°